This demonstration page uses our WeatherBlox Daily Observations layout. Learn more.

Left ArrowRight Arrow

Hourly Observations for February 7, 2016

Temp ( °F °C ) Dew Point ( °F °C ) Humidity (%) Winds ( mph kmh ) Pressure ( in mb ) Visibility ( mi km ) Precip ( " mm )
12:15 am 00:15 Clear 34 1 25 -4 70 70 S 8 13 30.24 1024 10 16 N/A
12:34 am 00:34 Clear 34 1 25 -4 70 70 S 8 13 30.21 1023 10 16 N/A
12:54 am 00:54 Clear 34 1 25 -4 70 70 S 8 13 30.21 1023 10 16 N/A
1:15 am 01:15 Clear 34 1 25 -4 70 70 S 8 13 30.21 1023 10 16 N/A
1:34 am 01:34 Clear 34 1 25 -4 70 70 S 8 13 30.21 1023 10 16 N/A
1:54 am 01:54 Clear 34 1 25 -4 70 70 S 8 13 30.21 1023 10 16 N/A
2:15 am 02:15 Clear 34 1 25 -4 70 70 S 8 13 30.21 1023 10 16 N/A
2:34 am 02:34 Clear 34 1 25 -4 70 70 S 9 15 30.21 1023 10 16 N/A
2:54 am 02:54 Clear 34 1 25 -4 70 70 S 9 15 30.18 1022 10 16 N/A
3:15 am 03:15 Clear 32 undefined 25 -4 75 75 S 9 15 30.18 1022 10 16 N/A
3:34 am 03:34 Clear 32 undefined 25 -4 75 75 S 8 13 30.18 1022 10 16 N/A
3:54 am 03:54 Clear 32 undefined 25 -4 75 75 S 9 15 30.18 1022 10 16 N/A
4:15 am 04:15 Clear 32 undefined 25 -4 75 75 S 8 13 30.18 1022 10 16 N/A
4:34 am 04:34 Clear 32 undefined 25 -4 75 75 SSW 7 11 30.15 1021 10 16 N/A
4:54 am 04:54 Clear 32 undefined 25 -4 75 75 SSW 6 9 30.15 1021 10 16 N/A
5:15 am 05:15 Clear 32 undefined 23 -5 69 69 SSW 6 9 30.15 1021 10 16 N/A
5:34 am 05:34 Clear 32 undefined 23 -5 69 69 SW 6 9 30.15 1021 10 16 N/A
5:54 am 05:54 Clear 32 undefined 23 -5 69 69 SSW 6 9 30.15 1021 10 16 N/A
6:15 am 06:15 Clear 32 undefined 23 -5 69 69 SW 7 11 30.12 1020 10 16 N/A
6:34 am 06:34 Clear 32 undefined 23 -5 69 69 SSW 8 13 30.12 1020 10 16 N/A
6:54 am 06:54 Clear 32 undefined 23 -5 69 69 SSW 6 9 30.12 1020 10 16 N/A
7:15 am 07:15 Clear 32 undefined 23 -5 69 69 S 6 9 30.09 1019 10 16 N/A
7:34 am 07:34 Clear 32 undefined 23 -5 69 69 S 7 11 30.09 1019 10 16 N/A
7:55 am 07:55 Sunny 32 undefined 23 -5 69 69 S 8 13 30.09 1019 10 16 N/A
8:14 am 08:14 Sunny 32 undefined 23 -5 69 69 S 9 15 30.09 1019 10 16 N/A
8:34 am 08:34 Sunny 34 1 25 -4 70 70 S 9 15 30.09 1019 10 16 N/A
8:55 am 08:55 Sunny 34 1 25 -4 70 70 S 9 15 30.09 1019 10 16 N/A
9:14 am 09:14 Sunny 36 2 25 -4 65 65 S 9 15 30.09 1019 10 16 N/A
9:35 am 09:35 Sunny 36 2 25 -4 65 65 S 9 15 30.09 1019 10 16 N/A
9:54 am 09:54 Partly Cloudy 37 3 25 -4 60 60 S 10 17 30.09 1019 10 16 N/A
10:14 am 10:14 Sunny 37 3 27 -3 65 65 S 9 15 30.09 1019 10 16 N/A
10:35 am 10:35 Sunny 39 4 27 -3 61 61 S 12 19 30.03 1017 10 16 N/A
10:54 am 10:54 Sunny 41 5 27 -3 57 57 S 12 19 30.03 1017 10 16 N/A
11:14 am 11:14 Sunny 41 5 27 -3 57 57 SSW 9 15 30.03 1017 10 16 N/A
11:35 am 11:35 Sunny 45 7 27 -3 49 49 SSW 10 17 30.03 1017 10 16 N/A
11:54 am 11:54 Sunny 46 8 28 -2 50 50 SW 16 26 30.00 1016 10 16 N/A
12:14 pm 12:14 Sunny 48 9 30 -1 50 50 SW 14 22 30.00 1016 10 16 N/A
12:35 pm 12:35 Sunny 48 9 30 -1 50 50 WSW 20 31 29.97 1015 10 16 N/A
12:54 pm 12:54 Sunny 50 10 32 undefined 50 50 SW 21 33 29.97 1015 10 16 N/A
1:14 pm 13:14 Sunny 50 10 32 undefined 50 50 SW 22 35 29.94 1014 10 16 N/A
1:35 pm 13:35 Sunny 50 10 32 undefined 50 50 SW 18 30 29.91 1013 10 16 N/A
1:54 pm 13:54 Sunny 50 10 30 -1 47 47 SW 23 37 29.91 1013 10 16 N/A
2:14 pm 14:14 Sunny 52 11 30 -1 44 44 SW 24 39 29.85 1011 10 16 N/A
2:35 pm 14:35 Sunny 52 11 30 -1 44 44 SW 24 39 29.83 1010 10 16 N/A
2:54 pm 14:54 Sunny 52 11 30 -1 44 44 SW 18 30 29.83 1010 10 16 N/A
3:14 pm 15:14 Sunny 52 11 28 -2 41 41 SSW 22 35 29.83 1010 10 16 N/A
3:35 pm 15:35 Sunny 50 10 28 -2 43 43 SSW 22 35 29.83 1010 10 16 N/A
3:54 pm 15:54 Sunny 52 11 28 -2 41 41 SW 17 28 29.83 1010 10 16 N/A
4:14 pm 16:14 Sunny 50 10 28 -2 43 43 SSW 16 26 29.83 1010 10 16 N/A
4:35 pm 16:35 Sunny 50 10 28 -2 43 43 SW 20 31 29.83 1010 10 16 N/A
4:54 pm 16:54 Sunny 50 10 27 -3 40 40 SSW 18 30 29.83 1010 10 16 N/A
5:14 pm 17:14 Sunny 50 10 28 -2 43 43 WSW 16 26 29.83 1010 10 16 N/A
5:35 pm 17:35 Sunny 48 9 28 -2 46 46 SW 14 22 29.85 1011 10 16 N/A
5:54 pm 17:54 Mostly Cloudy 48 9 28 -2 46 46 SW 13 20 29.85 1011 10 16 N/A
6:14 pm 18:14 Cloudy 48 9 30 -1 50 50 SW 10 17 29.85 1011 10 16 N/A
6:35 pm 18:35 Cloudy 48 9 30 -1 50 50 SW 14 22 29.85 1011 10 16 N/A
6:54 pm 18:54 Cloudy 46 8 30 -1 53 53 SW 10 17 29.85 1011 10 16 N/A
7:14 pm 19:14 Cloudy 46 8 30 -1 53 53 SW 8 13 29.85 1011 10 16 N/A
7:35 pm 19:35 Cloudy 46 8 30 -1 53 53 SSW 7 11 29.85 1011 10 16 N/A
7:54 pm 19:54 Cloudy 46 8 30 -1 53 53 SW 8 13 29.83 1010 10 16 N/A
8:15 pm 20:15 Cloudy 45 7 30 -1 57 57 SSW 5 7 29.83 1010 10 16 N/A
8:34 pm 20:34 Cloudy 45 7 30 -1 57 57 SW 7 11 29.83 1010 10 16 N/A
8:54 pm 20:54 Cloudy 45 7 32 undefined 61 61 WNW 20 31 29.83 1010 10 16 N/A
9:15 pm 21:15 Cloudy 43 6 32 undefined 66 66 W 12 19 29.83 1010 10 16 N/A
9:34 pm 21:34 Mostly Cloudy 41 5 32 undefined 70 70 W 13 20 29.83 1010 10 16 N/A
9:54 pm 21:54 Partly Cloudy 41 5 32 undefined 70 70 W 9 15 29.83 1010 10 16 N/A
10:15 pm 22:15 Clear 39 4 32 undefined 75 75 W 7 11 29.83 1010 10 16 N/A
10:34 pm 22:34 Clear 39 4 32 undefined 75 75 W 8 13 29.83 1010 10 16 N/A
10:54 pm 22:54 Clear 37 3 32 undefined 81 81 W 7 11 29.83 1010 10 16 N/A
11:15 pm 23:15 Clear 36 2 30 -1 81 81 W 6 9 29.83 1010 10 16 N/A
11:34 pm 23:34 Partly Cloudy 36 2 30 -1 81 81 W 8 13 29.80 1009 10 16 N/A
11:55 pm 23:55 Partly Cloudy 36 2 32 undefined 87 87 WSW 6 9 29.80 1009 10 16 N/A

Powered by AerisWeather